CW0775 Weather Reports


time (UTC)temp
F
wind
direction
speed
knots
gust
knots
rain 1hr
in
rain 24hr
in
rain mn
in
humidity
%
barometer
mb
20260509051506 43 283 0.0 0.0 0.00 0.00 0.00 96 1018.3
20260509051005 42 283 0.0 0.0 0.00 0.00 0.00 97 1018.3
20260509050505 42 283 0.0 0.0 0.00 0.00 0.00 97 1018.3
20260509050005 42 282 0.0 0.0 0.00 0.00 0.00 97 1018.3
20260509044505 39 283 0.0 0.0 0.00 0.00 0.00 98 1018.1
20260509043506 39 283 0.0 0.0 0.00 0.00 0.00 98 1017.9
20260509043005 38 283 0.0 0.0 0.00 0.00 0.00 98 1017.9
20260509041506 38 283 0.0 0.0 0.00 0.00 0.00 98 1017.9
20260509041006 37 283 0.0 0.0 0.00 0.00 0.00 98 1018.0
20260509040505 37 283 0.0 0.0 0.00 0.00 0.00 97 1017.9
20260509040005 37 283 0.0 0.0 0.00 0.00 0.00 97 1017.9
20260509034505 37 283 0.0 0.0 0.00 0.00 0.00 97 1017.9
20260509034005 38 283 0.0 0.0 0.00 0.00 0.00 97 1017.6
20260509033505 38 283 0.0 0.0 0.00 0.00 0.00 97 1017.7
20260509033005 38 283 0.0 0.0 0.00 0.00 0.00 97 1017.8
20260509031506 38 283 0.0 0.0 0.00 0.00 0.00 97 1017.9
20260509030505 38 283 0.0 0.0 0.00 0.00 0.00 97 1017.9
20260509030005 38 283 0.0 0.0 0.00 0.00 0.00 97 1017.9
20260509024505 38 283 0.0 0.0 0.00 0.00 0.00 97 1017.9
20260509024005 38 283 0.0 0.0 0.00 0.00 0.00 97 1018.0
20260509023506 39 283 0.0 0.0 0.00 0.00 0.00 97 1018.1
20260509023005 39 283 0.0 0.0 0.00 0.00 0.00 97 1018.2
20260509021505 39 283 0.0 0.0 0.00 0.00 0.00 96 1018.3
20260509021005 39 283 0.0 0.0 0.00 0.00 0.00 97 1018.1
20260509020505 39 283 0.0 0.0 0.00 0.00 0.00 96 1018.0
20260509020005 39 283 0.0 1.7 0.00 0.00 0.00 96 1017.9
20260509014505 39 283 0.0 0.0 0.00 0.00 0.00 96 1018.1
20260509014005 39 283 0.0 0.0 0.00 0.00 0.00 96 1018.0
20260509013506 39 283 0.0 2.6 0.00 0.00 0.00 96 1018.2
20260509013005 39 283 1.7 2.6 0.00 0.00 0.00 96 1018.2
20260509011505 40 283 0.0 0.0 0.00 0.00 0.00 96 1017.9
20260509011005 40 283 0.0 0.0 0.00 0.00 0.00 96 1017.9
20260509010505 40 283 0.0 0.0 0.00 0.00 0.00 96 1018.3
20260509004505 40 283 0.0 0.0 0.00 0.00 0.00 95 1018.3
20260509004005 40 283 0.0 0.0 0.00 0.00 0.00 95 1018.0
20260509003505 40 283 0.0 0.0 0.00 0.00 0.00 95 1018.0
20260509003005 41 283 0.0 0.0 0.00 0.00 0.00 95 1018.3
20260509001506 41 283 0.0 0.0 0.00 0.00 0.00 95 1018.1
20260509001005 41 283 0.0 0.0 0.00 0.00 0.00 94 1017.9
20260509000505 41 283 0.0 0.0 0.00 0.00 0.00 94 1017.9
20260509000005 41 283 0.0 0.0 0.00 0.00 0.00 94 1017.9
20260508234505 42 283 0.0 0.0 0.00 0.00 0.00 94 1018.3
20260508234005 41 283 0.0 0.0 0.00 0.00 0.00 94 1018.3
20260508233506 42 283 0.0 0.0 0.00 0.00 0.00 93 1018.2
20260508233005 42 283 0.0 0.0 0.00 0.00 0.00 93 1017.9
20260508231505 42 284 0.0 0.0 0.00 0.00 0.00 93 1018.0
20260508231005 42 283 0.0 2.6 0.00 0.00 0.00 93 1018.3
20260508230504 42 284 0.9 2.6 0.00 0.00 0.00 93 1018.3
20260508230004 43 284 0.0 2.6 0.00 0.00 0.00 93 1018.3
20260508224505 43 285 0.0 0.0 0.00 0.00 0.00 92 1018.3
20260508224005 43 285 0.0 0.0 0.00 0.00 0.00 92 1018.3
20260508223505 43 285 0.0 0.0 0.00 0.00 0.00 92 1018.3
20260508223005 43 285 0.0 1.7 0.00 0.00 0.00 92 1018.3
20260508221505 43 285 0.9 2.6 0.00 0.00 0.00 91 1018.3
20260508220005 44 285 0.0 0.0 0.00 0.00 0.00 91 1017.9
20260508214504 45 285 0.0 0.0 0.00 0.00 0.00 89 1017.9
20260508214005 45 285 0.0 0.0 0.00 0.00 0.00 88 1017.9
20260508213505 46 285 0.0 0.0 0.00 0.00 0.00 89 1017.9
20260508213005 46 285 0.0 0.0 0.00 0.00 0.00 89 1017.9
20260508210505 46 285 1.7 1.7 0.00 0.00 0.00 88 1017.6
20260508204505 48 286 0.0 0.0 0.00 0.00 0.00 86 1017.6
20260508204005 49 286 0.0 0.0 0.00 0.00 0.00 85 1017.6
20260508203005 50 339 0.0 0.0 0.00 0.00 0.00 83 1017.6
20260508201506 51 339 0.0 0.0 0.00 0.00 0.00 81 1017.6
20260508201005 51 339 0.0 0.0 0.00 0.00 0.00 80 1017.6
20260508200505 51 339 0.0 0.0 0.00 0.00 0.00 80 1017.3
20260508200005 52 339 0.0 0.0 0.00 0.00 0.00 79 1017.4
20260508194504 53 340 0.0 0.0 0.00 0.00 0.00 76 1017.3
20260508194004 54 340 0.0 0.0 0.00 0.00 0.00 75 1017.3
20260508193505 54 341 0.0 1.7 0.00 0.00 0.00 75 1017.3
20260508193004 54 343 0.9 1.7 0.00 0.00 0.00 74 1017.3
20260508191505 55 322 0.0 1.7 0.00 0.00 0.00 73 1017.0
20260508191004 55 323 0.9 2.6 0.00 0.00 0.00 72 1016.9
20260508190504 55 310 1.7 1.7 0.00 0.00 0.00 72 1016.9
20260508190005 56 305 1.7 2.6 0.00 0.00 0.00 71 1016.9
20260508184505 57 324 1.7 2.6 0.00 0.00 0.00 67 1016.6
20260508184004 58 314 1.7 2.6 0.00 0.00 0.00 66 1016.6
20260508183004 58 323 1.7 4.3 0.00 0.00 0.00 65 1016.6
20260508181505 60 332 1.7 4.3 0.00 0.00 0.00 60 1016.6
20260508181004 61 48 1.7 2.6 0.00 0.00 0.00 59 1016.3
20260508180505 62 322 0.9 2.6 0.00 0.00 0.00 57 1016.3
20260508180005 62 321 0.9 2.6 0.00 0.00 0.00 56 1016.2
20260508174504 61 14 0.9 1.7 0.00 0.00 0.00 57 1016.1
20260508174004 62 68 0.9 2.6 0.00 0.00 0.00 57 1016.3
20260508173505 62 50 1.7 4.3 0.00 0.00 0.00 55 1016.1
20260508173005 62 66 1.7 8.7 0.00 0.00 0.00 55 1016.3
20260508171506 62 65 1.7 7.0 0.00 0.00 0.00 55 1015.9
20260508171004 62 70 1.7 7.0 0.00 0.00 0.00 56 1016.0
20260508170504 62 101 4.3 12.2 0.00 0.00 0.00 55 1015.9
20260508170005 62 77 1.7 7.0 0.00 0.00 0.00 54 1015.9
20260508164505 62 45 1.7 7.0 0.00 0.00 0.00 58 1015.9
20260508163505 63 320 3.5 6.1 0.00 0.00 0.00 55 1015.9
20260508163004 63 59 3.5 8.7 0.00 0.00 0.00 55 1015.9
20260508160004 63 87 4.3 12.2 0.00 0.00 0.00 53 1015.8
20260508154504 63 110 4.3 11.3 0.00 0.00 0.00 54 1016.2
20260508153505 63 131 8.7 14.8 0.00 0.00 0.00 53 1015.9
20260508151505 64 357 5.2 8.7 0.00 0.00 0.00 51 1016.2
20260508151004 64 79 3.5 8.7 0.00 0.00 0.00 53 1016.1
20260508150505 63 341 5.2 8.7 0.00 0.00 0.00 53 1016.2
20260508144505 65 90 5.2 12.2 0.00 0.00 0.00 54 1015.9
20260508144004 65 119 5.2 12.2 0.00 0.00 0.00 49 1016.3
20260508143505 63 274 0.9 7.0 0.00 0.00 0.00 50 1016.3
20260508143004 64 105 3.5 13.0 0.00 0.00 0.00 51 1016.3
20260508141505 63 138 1.7 12.2 0.00 0.00 0.00 51 1016.3
20260508141004 63 129 2.6 8.7 0.00 0.00 0.00 52 1016.3
20260508134504 64 111 6.1 13.0 0.00 0.00 0.00 52 1016.6
20260508134004 65 90 3.5 8.7 0.00 0.00 0.00 52 1016.6
20260508133504 65 93 2.6 8.7 0.00 0.00 0.00 53 1016.6
20260508133005 65 127 2.6 7.0 0.00 0.00 0.00 53 1016.6
20260508131504 65 223 0.9 8.7 0.00 0.00 0.00 52 1016.6
20260508131004 64 88 5.2 8.7 0.00 0.00 0.00 52 1016.6
20260508130504 64 132 2.6 6.1 0.00 0.00 0.00 53 1016.6
20260508130004 64 142 5.2 13.0 0.00 0.00 0.00 51 1016.6
20260508124504 63 120 5.2 7.0 0.00 0.00 0.00 55 1016.9
20260508124005 63 160 2.6 11.3 0.00 0.00 0.00 55 1016.9
20260508123504 63 116 6.1 11.3 0.00 0.00 0.00 55 1016.9
20260508123004 63 95 3.5 13.0 0.00 0.00 0.00 54 1016.9
20260508121504 62 135 5.2 12.2 0.00 0.00 0.00 57 1017.3
20260508121004 62 191 4.3 11.3 0.00 0.00 0.00 60 1017.2
20260508120504 63 26 4.3 8.7 0.00 0.00 0.00 62 1016.9
20260508120005 64 348 2.6 8.7 0.00 0.00 0.00 57 1017.2
20260508113504 61 123 2.6 7.0 0.00 0.00 0.00 64 1016.9
20260508113005 61 28 3.5 11.3 0.00 0.00 0.00 64 1017.2
20260508111505 60 12 1.7 8.7 0.00 0.00 0.00 69 1017.3
20260508111004 61 125 0.9 8.7 0.00 0.00 0.00 66 1017.3
20260508110504 60 144 3.5 8.7 0.00 0.00 0.00 67 1017.3
20260508110004 61 129 3.5 8.7 0.00 0.00 0.00 69 1017.4
20260508104504 60 123 5.2 8.7 0.00 0.00 0.00 71 1017.6
20260508104004 60 44 3.5 7.0 0.00 0.00 0.00 72 1017.6
20260508103504 59 142 2.6 7.0 0.00 0.00 0.00 73 1017.6
20260508103004 59 145 2.6 11.3 0.00 0.00 0.00 72 1017.6
20260508101004 59 36 2.6 6.1 0.00 0.00 0.00 76 1017.9
20260508100504 59 358 4.3 11.3 0.00 0.00 0.00 75 1017.6
20260508100004 58 307 5.2 11.3 0.00 0.00 0.00 77 1017.6
20260508094504 59 99 2.6 6.1 0.00 0.00 0.00 78 1017.6
20260508093506 58 5 2.6 6.1 0.00 0.00 0.00 78 1017.6
20260508093005 57 327 1.7 7.0 0.00 0.00 0.00 79 1017.6
20260508091506 55 86 2.6 7.0 0.00 0.00 0.00 83 1017.9
20260508090505 54 349 0.9 4.3 0.00 0.00 0.00 83 1018.2
20260508084506 53 353 1.7 7.0 0.00 0.00 0.00 86 1017.9
20260508084006 53 121 4.3 7.0 0.00 0.00 0.00 85 1017.9
20260508083507 53 335 2.6 4.3 0.00 0.00 0.00 86 1017.9
20260508083005 53 110 3.5 8.7 0.00 0.00 0.00 86 1017.7
20260508081506 52 337 0.9 7.0 0.00 0.00 0.00 87 1018.0
20260508081006 52 125 4.3 7.0 0.00 0.00 0.00 87 1017.6
20260508080505 52 97 1.7 2.6 0.00 0.00 0.00 87 1017.9
20260508080005 52 83 1.7 7.0 0.00 0.00 0.00 88 1017.9
20260508074006 51 89 2.6 7.0 0.00 0.00 0.00 88 1017.9
20260508073005 51 90 1.7 6.1 0.00 0.00 0.00 89 1017.9
20260508071005 50 92 2.6 6.1 0.00 0.00 0.00 89 1017.9
20260508070506 50 116 3.5 7.0 0.00 0.00 0.00 90 1017.9
20260508070005 49 91 3.5 6.1 0.00 0.00 0.00 90 1017.9
20260508064006 49 91 2.6 6.1 0.00 0.00 0.00 91 1017.9
20260508061506 49 35 1.7 2.6 0.00 0.00 0.00 92 1017.6
20260508060505 48 184 1.7 4.3 0.00 0.00 0.00 93 1017.6
20260508060006 48 115 2.6 6.1 0.00 0.00 0.00 93 1017.6
20260508054505 48 79 2.6 7.0 0.00 0.00 0.00 93 1017.5
20260508053507 48 102 1.7 4.3 0.00 0.00 0.00 93 1017.6
20260508053005 48 83 2.6 4.3 0.00 0.00 0.00 93 1017.3